sat.trackr.live / text

‹ back to catalog

TIANQI-6

NORAD 46810 · 2020-076D

PAYLOAD ACTIVE UNKNOWN

§ Identity

Operator
Country
PRC
Launch date
2020-10-26
Launch site
XICLF
Launch vehicle
Mass (kg)
RCS (m²)

External: N2YO · Heavens-Above · Gunter

§ Orbital elements

Epoch: 2026-09-20T04:15:02.932992Z

Period
95.51 min
Inclination
34.9980°
Eccentricity
0.0011251
Mean motion
15.07703895 rev/d
Perigee alt
535.4 km
Apogee alt
551.0 km
Semi-major
6,921.4 km
B*
1.5213e-4
RAAN
185.2322°
Arg perigee
285.3649°
Mean anomaly
74.5818°
Rev number
32,292

§ Raw data

TIANQI-61 46810U 20076D   26263.17711728  .00002344  00000+0  15213-3 0  99942 46810  34.9980 185.2322 0011251 285.3649  74.5818 15.07703895322920

JSON: /api/v1/satellites/46810 · /tle

For live sub-satellite position, see the globe view (requires WebGL).

§ Visibility from observer

Set your observer location to see the next 7 days of passes ≥ 10°. The values pass through the URL so the page stays shareable.

No JS? Fill the form by hand. The geolocation button needs JavaScript.

§ Radio — SatNOGS DB

ModeDescriptionDownlinkUplink
Downlink 400.500 MHz

1 transmitter · refreshed weekly from db.satnogs.org